N62PT KCAK-KCAK

Flight info

Callsign N62PT
Flight time N/A
Altitude 3000
Route EGGII
Aircraft P28A/L-SDFRY/C

Departure

Time 2026-04-27 20:04
Airport Akron Canton Regional Airport (KCAK)

Arrival

Time N/A
Airport Akron Canton Regional Airport (KCAK)
Time Latitude Longitude Altitude Speed Heading
2026-04-27 19:31 40.91780 -81.43518 1221 ft 0 kts 313°
2026-04-27 19:53 40.91781 -81.43519 1221 ft 0 kts 315°
2026-04-27 19:54 40.91805 -81.43514 1222 ft 9 kts 35°
2026-04-27 19:55 40.91836 -81.43502 1223 ft 0 kts 323°
2026-04-27 19:55 40.91836 -81.43556 1204 ft 12 kts 230°
2026-04-27 19:55 40.91778 -81.43623 1218 ft 12 kts 227°
2026-04-27 19:55 40.91720 -81.43708 1217 ft 14 kts 226°
2026-04-27 19:56 40.91682 -81.43772 1216 ft 9 kts 269°
2026-04-27 19:56 40.91750 -81.43801 1217 ft 13 kts 352°
2026-04-27 19:56 40.91878 -81.43822 1216 ft 24 kts 352°
2026-04-27 19:56 40.92039 -81.43848 1218 ft 24 kts 353°
2026-04-27 19:57 40.92191 -81.43871 1218 ft 23 kts 356°
2026-04-27 19:57 40.92310 -81.43891 1219 ft 15 kts 353°
2026-04-27 19:57 40.92392 -81.43913 1220 ft 3 kts 315°
2026-04-27 19:57 40.92397 -81.43929 1220 ft 0 kts 219°
2026-04-27 20:00 40.92395 -81.43936 1220 ft 0 kts 278°
2026-04-27 20:02 40.92397 -81.43998 1220 ft 13 kts 265°
2026-04-27 20:03 40.92296 -81.44046 1220 ft 20 kts 184°
2026-04-27 20:03 40.92028 -81.44061 1222 ft 56 kts 182°
2026-04-27 20:03 40.91743 -81.44077 1286 ft 63 kts 183°
2026-04-27 20:03 40.91308 -81.44102 1423 ft 65 kts 184°
2026-04-27 20:04 40.90846 -81.44131 1552 ft 67 kts 180°
2026-04-27 20:04 40.90412 -81.44192 1758 ft 69 kts 183°
2026-04-27 20:04 40.89949 -81.44261 1976 ft 70 kts 183°
2026-04-27 20:04 40.89457 -81.44382 2104 ft 71 kts 190°
2026-04-27 20:05 40.89015 -81.44547 2265 ft 68 kts 184°
2026-04-27 20:05 40.88589 -81.44378 2370 ft 70 kts 139°
2026-04-27 20:05 40.88424 -81.43774 2589 ft 68 kts 110°
2026-04-27 20:05 40.88396 -81.43121 2804 ft 73 kts 103°
2026-04-27 20:06 40.88330 -81.42445 2936 ft 85 kts 103°
2026-04-27 20:06 40.88250 -81.41659 3051 ft 89 kts 104°
2026-04-27 20:06 40.88166 -81.40867 3153 ft 85 kts 113°
2026-04-27 20:06 40.88062 -81.40106 3275 ft 87 kts 97°
2026-04-27 20:07 40.88194 -81.39285 3095 ft 90 kts 82°
2026-04-27 20:07 40.88358 -81.38529 3071 ft 88 kts 78°
2026-04-27 20:07 40.88625 -81.37762 2947 ft 90 kts 78°
2026-04-27 20:07 40.88758 -81.36969 3001 ft 88 kts 91°
2026-04-27 20:08 40.88784 -81.36162 3036 ft 87 kts 100°
2026-04-27 20:08 40.88471 -81.35552 3044 ft 80 kts 138°
2026-04-27 20:08 40.88257 -81.34825 3109 ft 92 kts 108°
2026-04-27 20:08 40.88628 -81.34115 3037 ft 106 kts 45°
2026-04-27 20:09 40.89009 -81.33377 3027 ft 90 kts 76°
2026-04-27 20:09 40.89216 -81.32583 2981 ft 92 kts 83°
2026-04-27 20:09 40.89427 -81.31758 3126 ft 95 kts 78°
2026-04-27 20:09 40.89592 -81.30867 2956 ft 102 kts 84°
2026-04-27 20:10 40.89860 -81.30001 2828 ft 104 kts 58°
2026-04-27 20:10 40.90494 -81.29352 2492 ft 132 kts 43°
2026-04-27 20:10 40.91039 -81.28790 2653 ft 85 kts 51°